Temperature
28 28 27 27 27 28 28 29 28 28 27 26 26 26 26 27 27 27 26 25 24 23 22 21 20 19 19 19 18 18 18 18 17 17 17 17 17 17 17 17 17 17 17 17
26 27 27 26 27 27 28 29 29 29 28 28 27 26 26 26 27 27 26 25 24 22 21 20 20 19 19 19 19 18 18 18 18 17 17 17 17 17 17 17 17 17 17 17
26 26 26 25 27 28 28 29 29 28 27 27 26 25 25 25 26 25 24 24 23 22 21 20 20 19 19 19 18 18 18 18 17 17 17 17 17 17 17 17 17 16 16 16
25 25 24 27 28 28 28 28 28 28 27 27 26 24 23 23 24 23 23 23 22 22 21 20 20 19 19 18 18 18 18 17 17 17 17 17 17 17 17 17 16 16 16 16
24 24 25 26 26 26 26 26 26 26 26 25 25 24 22 21 21 21 21 21 21 21 21 20 20 19 19 18 18 18 17 17 17 17 17 17 17 16 16 16 16 16 16 16
23 23 23 24 25 26 26 24 24 25 24 24 24 23 21 19 19 19 20 20 20 20 20 20 19 19 18 18 18 17 17 17 17 17 16 16 16 16 16 16 16 16 16 15
23 23 23 23 24 25 23 22 23 23 22 22 21 20 19 18 18 18 18 18 19 19 19 19 19 18 18 18 17 17 17 17 16 16 16 16 16 16 16 16 16 15 15 15
22 22 21 22 23 22 21 21 21 21 21 20 19 18 17 17 17 17 17 17 17 17 17 18 18 18 17 17 17 16 16 16 16 16 16 16 15 15 15 15 15 15 15 15
21 20 20 21 20 20 20 20 20 20 19 19 18 17 16 16 16 16 16 16 16 16 16 16 16 16 16 16 16 16 16 16 15 15 15 15 15 15 15 14 14 14 14 14
20 20 20 19 19 18 18 18 18 18 18 17 17 16 15 15 15 14 14 15 15 15 15 15 15 15 15 15 15 15 15 15 15 15 14 14 14 14 14 14 14 13 13 13
19 19 18 18 17 17 16 16 16 16 16 16 15 14 14 14 13 13 13 13 13 13 13 13 13 14 14 14 14 14 14 14 14 14 14 14 14 14 13 13 13 13 13 13
18 17 17 16 15 15 15 15 15 15 14 14 14 13 13 12 12 12 12 12 12 12 12 12 13 13 13 13 13 14 13 13 14 14 13 13 13 13 13 13 13 13 12 12
16 16 15 14 14 14 13 13 13 13 13 12 12 12 12 12 11 11 12 12 12 12 12 12 12 12 12 12 13 13 13 13 13 13 13 13 13 13 13 12 12 12 12 12
15 14 14 14 13 13 12 12 12 12 11 11 11 11 11 11 11 11 11 11 11 11 11 11 11 11 11 12 12 12 12 13 13 13 13 13 13 13 13 12 12 12 11 11
14 14 13 13 12 12 12 11 11 11 11 11 11 11 11 11 11 10 11 11 11 11 11 11 11 11 11 11 12 12 12 12 12 12 12 12 12 13 12 12 12 11 11 11
13 13 13 12 12 11 11 11 11 10 10 10 10 10 10 10 10 10 10 10 10 10 10 10 10 10 11 11 11 11 11 11 12 12 12 12 12 12 12 12 11 11 11 10
13 13 13 12 12 11 11 11 11 10 10 10 10 10 10 10 10 10 10 10 10 10 10 10 10 10 10 10 11 11 11 11 11 11 11 11 11 11 11 11 11 11 10 10
13 13 13 12 12 12 11 11 11 11 10 10 10 10 10 10 10 10 9 9 9 9 9 9 9 9 10 10 10 10 11 11 11 11 10 10 10 10 10 10 10 10 9 9
13 13 12 12 12 12 11 11 11 11 11 11 11 10 10 10 10 10 9 9 9 9 9 9 9 9 9 10 10 10 10 10 10 10 10 10 10 9 9 9 9 8 8 8
13 12 12 12 12 12 11 11 11 11 11 11 10 10 10 10 10 10 9 9 9 9 9 9 9 9 9 9 9 9 10 10 10 9 9 9 9 8 8 8 8 7 7 7
12 12 12 12 11 11 11 11 11 11 11 10 10 10 10 9 9 9 9 9 8 8 8 8 8 8 8 9 9 9 9 9 9 8 8 8 8 7 7 7 6 6 6 5
12 11 11 11 11 11 11 11 11 10 10 10 10 10 9 9 9 9 8 8 8 8 8 8 7 8 8 8 8 8 8 8 8 7 7 7 7 6 6 5 5 5 5 4
11 11 11 11 11 10 10 10 10 10 10 10 10 9 9 9 9 8 8 7 7 7 7 7 7 7 7 7 7 7 7 7 6 6 6 6 6 5 5 4 4 4 3 3
10 10 10 10 10 10 10 10 10 10 9 9 9 9 9 9 8 8 7 7 7 7 6 6 6 6 6 6 6 6 6 6 6 5 5 5 5 4 4 3 3 3 3 2
10 10 10 10 10 10 10 10 9 9 9 9 9 9 8 8 7 7 7 6 6 6 6 6 6 6 6 6 5 5 5 5 5 4 4 4 4 3 3 3 3 2 2 2
10 10 9 9 9 10 10 10 10 9 9 9 8 8 8 7 7 7 6 6 6 5 5 5 5 5 5 5 5 4 4 4 4 4 3 3 3 3 2 2 2 2 2 1
9 9 9 9 9 9 9 9 9 9 8 8 8 8 7 7 6 6 6 6 5 5 5 5 5 5 4 4 4 4 3 3 3 3 3 2 2 2 2 2 2 1 1 1
Wind_Speed
11 7 7 10 13 14 14 14 13 9 5 6 5 4 4 2 3 8 9 10 10 10 9 9 8 8 8 7 7 7 7 7 7 7 7 7 7 6 6 7 8 7 6 6
11 9 8 12 14 14 15 14 14 11 7 2 0 1 2 1 2 4 6 9 10 10 10 9 8 8 8 7 7 6 7 7 6 6 7 7 7 7 7 6 5 6 6 5
12 10 10 13 14 13 12 12 10 7 4 1 2 2 4 4 5 4 3 5 9 9 9 9 9 8 8 7 7 7 6 6 6 6 6 5 6 6 6 6 5 5 5 4
11 11 14 7 5 6 6 7 6 5 4 3 3 5 6 7 6 6 4 3 5 8 9 9 9 9 8 8 8 7 6 6 6 6 6 5 4 5 5 4 4 4 4 4
9 12 12 7 4 6 6 5 6 5 6 5 4 5 7 10 10 8 6 5 4 4 8 9 9 9 8 8 7 7 6 6 5 5 5 5 4 4 4 5 5 4 4 3
9 9 9 3 5 6 5 3 7 7 6 5 4 2 3 7 9 9 8 7 6 6 6 7 8 9 9 8 7 6 6 6 5 5 5 5 4 3 3 4 4 3 3 2
12 10 5 4 7 7 5 2 7 7 6 5 5 4 5 7 8 8 9 8 7 8 7 7 7 8 9 8 7 6 6 7 6 5 5 5 4 4 4 4 4 4 3 3
8 9 4 9 6 5 5 6 6 6 6 6 6 7 8 8 8 8 9 9 9 10 10 9 8 9 10 8 7 7 8 8 7 6 5 5 5 4 4 4 4 3 3 2
1 1 4 8 7 6 6 6 5 5 5 5 6 7 8 9 9 9 10 9 9 11 12 11 11 11 11 9 8 9 9 9 8 8 6 6 5 4 3 3 3 2 2 2
1 1 5 7 8 8 7 6 6 5 4 5 7 9 9 9 10 10 10 10 11 12 13 12 12 11 10 9 8 9 9 8 7 7 7 7 6 5 5 4 4 3 3 3
2 2 3 7 8 8 7 7 6 6 7 8 10 11 11 12 12 11 11 11 12 13 13 13 12 11 11 9 9 9 8 7 7 8 7 7 7 7 7 6 5 4 4 5
1 3 2 4 6 7 8 8 7 8 10 11 12 14 13 13 12 12 12 12 13 14 14 13 13 12 11 10 9 8 7 6 5 5 5 6 6 7 11 9 9 11 9 7
3 5 5 4 7 8 9 10 11 12 13 14 13 13 14 13 13 13 13 14 13 13 13 13 13 12 11 10 9 8 7 6 5 5 5 4 4 5 5 5 6 7 6 6
5 5 5 5 7 9 10 12 14 15 14 13 13 13 14 14 14 14 13 12 13 13 13 13 13 12 10 9 9 8 8 8 6 5 5 4 3 3 3 4 3 2 2 2
5 6 8 9 9 10 11 13 15 14 14 14 14 14 15 15 14 13 11 12 13 13 13 13 13 11 10 10 10 9 8 7 6 5 4 4 3 3 4 4 3 2 2 2
8 10 11 11 11 11 13 14 15 14 14 14 13 13 14 14 14 12 11 11 12 13 12 11 11 10 9 8 7 6 6 7 6 5 5 6 6 6 6 5 4 4 4 3
9 8 9 12 12 13 13 14 14 14 13 14 14 13 14 14 13 12 11 11 11 11 10 9 9 8 8 8 7 5 4 4 5 5 6 7 7 6 6 5 5 5 4 4
9 9 9 10 12 14 14 14 14 14 13 13 13 12 13 13 12 11 10 10 10 10 9 8 8 7 8 9 7 6 5 5 5 6 6 6 5 5 5 5 6 6 5 4
11 12 12 12 13 14 14 14 13 12 12 12 13 12 12 12 11 10 9 10 9 9 8 8 8 7 8 9 8 5 5 6 6 5 5 5 5 6 7 7 7 8 8 8
13 14 14 14 14 14 13 13 13 13 13 13 13 12 11 10 9 9 9 9 8 7 6 7 7 8 8 9 9 6 6 6 6 6 6 6 7 7 7 8 8 8 8 8
14 14 15 14 14 13 13 13 13 13 12 11 11 11 10 9 8 8 8 8 8 7 6 7 7 8 8 9 8 6 7 7 7 7 7 7 7 7 7 8 8 7 8 8
13 14 14 14 14 13 12 12 12 13 11 10 11 10 9 8 9 9 9 7 7 7 6 7 7 9 12 11 7 7 8 8 7 7 7 7 7 7 7 8 8 8 8 7
13 13 13 13 12 12 12 11 11 11 10 10 9 8 7 6 6 7 7 7 7 7 7 7 8 11 13 7 7 7 8 8 7 7 7 7 7 7 7 8 8 8 8 7
13 13 12 11 11 12 11 11 10 9 9 9 8 7 7 7 7 8 8 8 8 7 7 6 8 10 9 5 7 7 8 8 8 7 8 7 7 7 7 7 7 7 7 8
12 12 11 10 9 8 9 10 10 9 8 8 9 8 7 7 7 7 7 7 6 5 6 5 5 8 7 7 8 8 8 8 8 7 7 7 7 7 7 7 7 7 7 7
10 9 8 8 6 5 6 6 6 6 7 7 7 7 7 7 7 6 5 6 7 6 5 5 5 5 7 8 8 8 7 7 7 7 8 7 8 7 7 7 8 7 6 6
9 8 6 7 7 6 6 6 6 6 6 6 6 7 7 7 6 6 6 6 5 5 5 5 6 6 7 7 7 7 7 7 7 7 7 7 7 7 7 8 7 7 7 7
Wind_Direction
260 257 264 271 272 268 266 266 270 274 246 220 216 232 248 244 159 143 147 152 150 153 152 152 151 154 159 160 163 167 167 172 176 178 178 176 178 176 175 183 193 193 198 197
258 254 250 262 256 260 262 265 269 275 275 283 294 316 277 251 133 132 156 157 153 153 152 152 156 161 157 158 159 155 155 161 162 161 170 174 176 173 174 182 191 189 191 193
262 253 249 248 252 250 253 264 273 281 296 123 96 10 7 41 55 76 111 142 147 149 149 152 158 158 155 156 155 152 148 151 152 156 158 165 176 170 174 178 182 186 184 189
260 263 257 263 298 294 287 288 318 342 359 16 72 70 45 28 51 51 51 86 128 147 153 156 155 156 152 154 149 146 148 147 150 154 154 156 161 165 169 171 180 182 185 184
255 256 259 267 309 317 309 320 8 8 9 12 51 84 59 39 43 48 40 63 80 116 143 147 151 149 145 146 145 144 144 141 143 147 149 153 159 164 166 168 169 176 179 182
247 256 262 305 352 326 300 272 18 20 14 2 0 347 64 46 40 43 43 52 67 78 98 122 135 138 136 136 133 136 136 134 134 135 137 141 146 146 139 144 153 154 145 144
245 252 260 347 330 315 282 349 16 16 24 21 19 48 68 66 60 47 55 58 65 72 78 84 104 117 120 116 115 115 111 109 107 108 119 118 114 114 116 125 129 133 119 109
243 247 250 6 351 9 16 7 8 13 28 43 66 81 85 78 71 63 66 65 68 72 69 66 79 97 97 93 99 101 100 98 94 90 95 102 99 106 116 121 123 121 110 96
343 10 36 25 25 23 13 6 18 25 35 64 78 84 91 86 79 75 72 68 69 78 74 67 65 80 88 83 86 92 93 92 92 88 77 78 91 96 98 100 106 111 117 110
10 45 40 30 20 15 16 21 21 30 41 80 91 96 96 92 85 78 73 71 72 77 75 68 64 66 72 74 78 82 82 83 86 87 77 63 61 65 67 64 66 66 73 79
272 339 24 23 20 18 35 47 53 57 71 89 96 95 93 88 84 81 76 74 75 76 76 72 66 63 61 63 69 76 80 80 81 84 86 78 70 58 67 59 63 65 59 58
1 35 22 23 26 43 60 65 69 82 86 87 94 96 92 88 86 84 83 80 79 77 76 73 68 62 56 56 62 68 70 68 75 84 91 96 95 80 57 71 73 74 77 84
75 72 72 65 54 63 74 75 77 83 91 94 92 96 97 95 90 87 83 81 80 78 76 74 70 63 52 47 51 56 61 62 62 66 74 85 98 108 104 81 72 74 82 88
95 101 96 81 84 81 86 89 88 89 90 94 97 97 96 93 90 86 84 84 84 81 77 72 68 60 49 46 45 43 53 55 48 51 51 54 55 70 105 123 126 114 124 149
93 102 109 105 103 100 103 102 96 94 93 92 94 94 94 93 89 85 83 82 81 78 73 68 63 55 46 46 45 40 43 42 33 30 33 45 45 46 51 51 57 91 107 102
104 106 113 115 114 113 112 109 106 105 103 102 99 96 95 93 91 86 80 76 77 75 69 64 58 48 41 41 41 48 49 37 23 21 30 35 35 35 35 31 28 32 45 51
121 124 124 124 122 120 117 116 115 116 116 114 113 112 106 101 96 91 88 81 77 74 68 61 54 44 37 32 25 29 36 39 25 27 37 35 28 22 19 15 16 23 38 55
128 131 131 129 129 124 122 120 120 120 120 121 121 115 109 105 102 100 98 94 83 73 62 54 45 38 40 33 13 10 19 28 30 37 41 35 17 5 9 15 16 15 14 24
124 126 125 123 122 118 117 117 116 115 115 113 108 103 99 97 97 97 95 91 85 75 57 46 32 37 45 30 6 360 15 26 35 37 34 34 22 23 21 19 19 18 15 12
118 119 118 116 115 114 114 114 112 109 107 106 104 102 98 95 93 90 85 78 68 62 55 44 36 37 34 16 358 1 17 27 32 34 32 30 29 25 23 21 17 16 16 11
115 115 112 110 109 109 109 108 108 107 106 105 104 102 100 96 93 90 89 83 61 36 39 54 46 32 21 353 338 6 25 28 30 30 29 28 26 25 24 18 12 12 13 10
113 113 112 110 108 105 103 104 105 105 103 101 101 102 101 99 96 86 77 76 71 35 37 52 47 26 1 348 9 26 30 28 27 27 28 25 23 21 19 15 11 9 10 11
107 107 108 108 106 105 104 103 104 104 102 100 97 94 91 85 86 89 83 70 67 49 52 51 27 9 349 3 26 32 30 28 25 23 26 24 25 26 24 21 18 15 9 6
105 105 107 109 111 111 109 109 106 105 105 102 97 93 92 89 79 79 88 86 64 61 68 54 18 356 342 28 34 34 33 29 27 26 25 26 30 31 27 21 18 17 15 15
105 106 107 108 108 110 112 113 113 114 111 103 100 92 82 80 85 86 87 88 86 74 80 67 18 349 17 39 40 40 39 34 26 22 28 27 26 28 27 22 18 17 17 14
104 102 101 100 100 102 107 108 108 104 102 100 95 90 89 90 91 91 91 89 80 67 60 58 45 35 45 44 39 37 35 34 32 36 33 28 27 28 25 17 16 20 17 14
108 105 102 100 97 94 96 95 93 91 89 88 90 87 85 83 82 80 76 74 72 66 58 52 49 48 48 46 42 39 38 36 32 31 31 29 28 27 24 23 23 20 15 17
Height
1426 1426 1429 1432 1430 1427 1428 1427 1433 1431 1433 1433 1432 1432 1432 1433 1433 1435 1441 1445 1449 1453 1457 1461 1464 1467 1470 1472 1475 1477 1479 1482 1484 1486 1488 1492 1495 1498 1501 1504 1506 1509 1511 1513
1431 1427 1427 1432 1429 1427 1426 1423 1423 1424 1428 1425 1427 1430 1431 1433 1433 1436 1440 1444 1448 1452 1456 1460 1463 1466 1469 1471 1474 1477 1479 1481 1483 1485 1488 1491 1494 1497 1500 1502 1505 1507 1509 1511
1435 1429 1432 1440 1427 1423 1421 1419 1420 1427 1428 1426 1429 1433 1434 1435 1435 1437 1441 1444 1447 1451 1455 1458 1462 1466 1468 1471 1473 1476 1478 1481 1483 1485 1488 1490 1493 1496 1498 1500 1503 1505 1506 1508
1435 1436 1448 1429 1416 1416 1419 1419 1418 1421 1424 1426 1430 1433 1436 1438 1439 1441 1442 1445 1447 1450 1454 1458 1461 1465 1468 1471 1472 1475 1478 1480 1482 1485 1487 1489 1492 1494 1496 1499 1501 1503 1505 1506
1437 1440 1435 1425 1421 1422 1425 1427 1425 1426 1427 1430 1432 1435 1440 1441 1442 1443 1444 1445 1448 1451 1454 1457 1461 1464 1467 1470 1472 1474 1477 1479 1481 1483 1485 1488 1490 1492 1495 1497 1499 1501 1503 1504
1437 1444 1446 1435 1424 1423 1426 1434 1432 1430 1432 1433 1434 1437 1445 1445 1445 1445 1446 1447 1449 1451 1453 1456 1459 1463 1466 1469 1472 1474 1476 1478 1481 1483 1485 1487 1489 1491 1493 1496 1498 1499 1501 1502
1437 1441 1438 1432 1428 1427 1439 1443 1437 1436 1437 1438 1440 1443 1447 1446 1447 1447 1448 1449 1450 1452 1454 1457 1460 1462 1465 1469 1471 1474 1476 1478 1480 1482 1484 1486 1488 1490 1492 1494 1496 1498 1499 1500
1436 1443 1446 1435 1432 1438 1443 1440 1439 1440 1441 1441 1443 1444 1446 1448 1449 1449 1451 1452 1452 1454 1456 1458 1460 1463 1466 1469 1472 1474 1476 1478 1480 1482 1484 1486 1487 1489 1491 1493 1495 1496 1497 1498
1438 1443 1440 1439 1441 1442 1442 1442 1442 1442 1443 1444 1445 1447 1448 1450 1451 1452 1454 1454 1455 1456 1458 1460 1462 1464 1467 1470 1473 1475 1477 1478 1480 1483 1484 1486 1487 1489 1491 1493 1494 1495 1496 1497
1437 1438 1441 1443 1443 1443 1443 1443 1444 1444 1445 1446 1447 1449 1451 1452 1454 1455 1456 1457 1458 1459 1461 1463 1466 1468 1470 1472 1474 1476 1478 1480 1482 1484 1485 1487 1488 1489 1491 1492 1493 1494 1495 1496
1438 1441 1443 1445 1446 1445 1445 1444 1445 1446 1447 1448 1449 1451 1453 1455 1456 1458 1460 1461 1462 1464 1466 1468 1470 1472 1473 1475 1477 1478 1480 1482 1484 1485 1487 1489 1490 1491 1492 1493 1494 1495 1496 1496
1443 1445 1446 1449 1449 1447 1446 1446 1447 1447 1449 1451 1452 1454 1456 1458 1460 1462 1464 1466 1467 1469 1471 1472 1474 1476 1478 1479 1480 1481 1483 1485 1487 1488 1490 1491 1492 1493 1494 1495 1495 1496 1496 1497
1445 1447 1448 1450 1450 1449 1449 1450 1450 1451 1452 1454 1456 1458 1461 1463 1465 1467 1469 1471 1473 1475 1476 1477 1479 1480 1482 1484 1485 1485 1487 1488 1489 1491 1492 1493 1494 1494 1495 1496 1496 1496 1497 1497
1446 1448 1450 1451 1452 1453 1453 1453 1454 1455 1457 1458 1461 1463 1465 1467 1470 1472 1475 1477 1479 1480 1481 1483 1483 1485 1487 1488 1489 1490 1491 1491 1492 1493 1494 1495 1496 1497 1497 1497 1497 1497 1497 1497
1447 1448 1451 1452 1454 1455 1456 1457 1458 1460 1462 1464 1467 1469 1471 1473 1476 1479 1481 1483 1484 1485 1486 1487 1488 1490 1492 1492 1492 1493 1494 1495 1495 1496 1497 1497 1498 1498 1499 1498 1498 1498 1497 1497
1449 1451 1453 1454 1456 1458 1460 1461 1463 1465 1468 1470 1473 1475 1477 1479 1481 1484 1486 1488 1489 1489 1491 1492 1493 1495 1495 1496 1496 1496 1497 1498 1499 1499 1499 1499 1500 1500 1500 1500 1499 1499 1498 1497
1451 1453 1455 1457 1459 1461 1463 1466 1468 1470 1473 1475 1478 1480 1482 1484 1487 1489 1491 1493 1494 1495 1496 1497 1497 1498 1499 1499 1499 1500 1501 1501 1501 1501 1501 1501 1501 1501 1500 1500 1500 1500 1499 1498
1453 1455 1457 1459 1461 1464 1467 1470 1472 1475 1478 1481 1483 1485 1487 1489 1492 1494 1496 1497 1498 1499 1500 1500 1501 1501 1501 1501 1502 1502 1503 1503 1503 1502 1502 1502 1502 1501 1501 1501 1500 1500 1499 1498
1455 1457 1459 1462 1465 1467 1471 1474 1477 1480 1483 1485 1488 1490 1493 1495 1497 1499 1500 1501 1502 1503 1504 1504 1504 1504 1504 1504 1504 1504 1504 1504 1504 1504 1503 1503 1503 1502 1502 1501 1500 1499 1498 1497
1458 1461 1463 1466 1470 1472 1476 1479 1482 1485 1488 1490 1493 1495 1497 1499 1500 1502 1503 1504 1505 1506 1506 1506 1506 1506 1505 1505 1505 1506 1506 1505 1505 1504 1504 1504 1503 1502 1502 1501 1500 1499 1498 1496
1462 1465 1468 1471 1474 1478 1481 1483 1486 1489 1492 1495 1497 1499 1501 1502 1504 1505 1506 1507 1508 1508 1508 1508 1507 1507 1507 1507 1507 1507 1507 1506 1506 1505 1505 1504 1503 1503 1502 1501 1500 1499 1497 1495
1467 1470 1473 1476 1479 1482 1486 1488 1491 1494 1496 1498 1500 1502 1504 1505 1506 1507 1508 1509 1509 1509 1509 1509 1508 1508 1507 1507 1508 1508 1507 1507 1506 1505 1505 1504 1503 1502 1501 1500 1499 1498 1496 1494
1471 1474 1477 1480 1483 1486 1490 1493 1495 1498 1500 1502 1503 1505 1506 1507 1509 1509 1510 1510 1510 1510 1510 1509 1509 1509 1508 1509 1509 1508 1507 1507 1506 1506 1505 1504 1503 1502 1501 1499 1498 1496 1495 1493
1476 1479 1482 1485 1488 1491 1493 1496 1499 1501 1503 1505 1506 1507 1509 1509 1510 1511 1511 1511 1511 1511 1510 1510 1510 1510 1510 1510 1509 1508 1508 1507 1506 1506 1505 1504 1503 1501 1500 1499 1497 1496 1494 1492
1480 1483 1486 1489 1492 1494 1497 1499 1502 1504 1505 1507 1508 1509 1510 1511 1512 1512 1512 1512 1512 1512 1512 1512 1511 1511 1511 1510 1510 1509 1508 1507 1506 1505 1504 1503 1502 1501 1500 1498 1496 1495 1493 1491
1485 1487 1490 1493 1495 1498 1500 1502 1504 1506 1507 1509 1510 1511 1512 1512 1513 1513 1513 1514 1514 1513 1513 1513 1513 1512 1512 1511 1510 1509 1509 1508 1507 1506 1505 1503 1502 1501 1499 1498 1496 1494 1492 1490
1489 1492 1494 1497 1499 1501 1503 1504 1506 1507 1509 1510 1512 1513 1513 1514 1514 1515 1515 1515 1515 1515 1514 1514 1513 1513 1512 1512 1511 1510 1509 1508 1507 1506 1505 1504 1503 1501 1499 1498 1496 1494 1492 1490